User: anonymous   Login
Location: Austin
(30.3000°N, 97.7500°W)
Time: 08:51:45
(UTC-06:00)
Language:

CZ-2C R/B - Orbit

View from above orbital plane
View from above orbital plane
View from above satellite
View from above satellite

Ground track
Ground track

The orbit data is extracted from the following two-line orbital elements,

1 28222U 04012C   24064.01693139  .00020798  00000-0  86735-3 0  9999
2 28222  97.8104  72.5770 0038046  58.5699 301.9248 15.23043573 91097
Epoch (UTC): 04 March 2024 00:24:22
Eccentricity: 0.0038046
inclination: 97.8104°
perigee height: 470 km
apogee height: 523 km
right ascension of ascending node: 72.5770°
argument of perigee: 58.5699°
revolutions per day: 15.23043573
mean anomaly at epoch: 301.9248°
orbit number at epoch: 9109

The dashed part of the orbit path shows where the satellite is in the earth's shadow,  

DLR